Regional Weather Roundup
Issued by NWS Albany, NY

Home | Current Version | Previous Version | Text Only | Print | Product List | Glossary On
Versions: 1 2 3 4 5 6 7 8 9 10 11 12 13 14 15 16 17 18 19 20 21 22 23 24 25 26 27 28 29 30 31 32 33 34 35 36 37 38 39 40 41 42 43 44 45 46 47 48 49 50
000
ASUS41 KALY 280910
RWRALY

NEW YORK STATE HOURLY WEATHER ROUNDUP
NATIONAL WEATHER SERVICE ALBANY NY
400 AM EST WED JAN 28 2015

NOTE: "FAIR" INDICATES FEW OR NO CLOUDS BELOW 12,000 FEET WITH NO
SIGNIFICANT WEATHER AND/OR NO OBSTRUCTIONS TO VISIBILITY.

NYZ032-033-038>043-046>054-057>066-NYZ062>081-281000-
EAST


CITY           SKY/WX    TMP DP  RH WIND       PRES   REMARKS
ALBANY         CLOUDY    13   0  56 N9        29.92R WCI   1
GLENS FALLS    MOCLDY    14   3  61 NE8       29.92R WCI   3
POUGHKEEPSIE   PTCLDY     5   1  83 CALM      29.90R
NEWBURGH       CLEAR     12   1  62 NW12      29.88R WCI  -2
MONTGOMERY     CLEAR     15  -3  44 NW9G21    29.88R WCI   3
WHITE PLAINS   CLEAR     15   1  53 NW10      29.86R WCI   2
ISLIP          CLOUDY    17   5  59 NW18G29   29.86R WCI   1
NEW YORK CITY  PTCLDY    18   3  52 NW15G23   29.92R WCI   4
CENTRAL PARK   CLEAR     17  -1  45 NW8       29.93R WCI   7
$$

NYZ005>009-017-018-044>046-055-056-281000-
CENTRAL


CITY           SKY/WX    TMP DP  RH WIND       PRES   REMARKS
FULTON         PTCLDY     7  -2  66 NW3       30.07R
SYRACUSE       PTCLDY     2  -2  83 W5        30.06S WCI  -8
ROME           PTCLDY     4  -5  66 NW6       30.05R WCI  -7
ELMIRA         PTCLDY     1  -3  83 SW7       30.05R WCI -12
BINGHAMTON     PTCLDY     8   2  76 NW14      29.91R WCI  -8
MONTICELLO     FAIR       9  -4  56 NW16      29.84S WCI  -9
$$

NYZ026>034-041>043-281000-
NORTH


CITY           SKY/WX    TMP DP  RH WIND       PRES   REMARKS
WATERTOWN        N/A    N/A N/A N/A MISG      30.09R
FORT DRUM      NOT AVBL
MASSENA        PTCLDY     7  -9  48 NW6       30.08R WCI  -3
SARANAC LAKE   PTCLDY     4  -3  73 NW5       29.86R WCI  -5
PLATTSBURGH    CLOUDY     9   3  77 N16       30.01R WCI  -8
$$

NYZ001>004-010>016-019>021-281000-
WEST


CITY           SKY/WX    TMP DP  RH WIND       PRES   REMARKS
NIAGARA FALLS  PTCLDY     5   0  79 W9        30.15R WCI  -9
BUFFALO        PTCLDY     6   2  83 SW5       30.14R WCI  -3
DUNKIRK        PTCLDY     2  -1  88 SW8       30.18R WCI -12
JAMESTOWN      PTCLDY     9   3  78 NW7       30.06S WCI  -3
WELLSVILLE     PTCLDY     8   2  76 NW12      29.99R WCI  -7
ROCHESTER      PTCLDY     2  -3  80 W7        30.11R WCI -11
PENN YAN       PTCLDY     5  -2  72 SW6       30.05R WCI  -6
$$

             KEY
       WCI = WIND CHILL INDEX
       VSB = VISIBILITY
       HX  = HEAT INDEX
$$



USA.gov is the U.S. government's official web portal to all federal, state and local government web resources and services.